This is the latest recevied weather packets stored in our database for station/object SP1BMW-13. If no packets are shown the sender has not sent any weather packets the latest 10 day(s).
| Time | Temp. | Humidity | Pressure | Rain* | Wind** | Luminosity | Snow |
|---|---|---|---|---|---|---|---|
| 1787792175 | 14.44° C | 79% | 1021.4 hPa | 0 mm | 0.45 m/s, 98° | 0 W/m² | - |
| 1787792115 | 14.44° C | 79% | 1021.5 hPa | 0 mm | 0.45 m/s, 111° | 0 W/m² | - |
| 1787792055 | 14.44° C | 79% | 1021.6 hPa | 0 mm | 0.89 m/s, 17° | 0 W/m² | - |
| 1787791995 | 14.44° C | 78% | 1021.6 hPa | 0 mm | 0.89 m/s, 106° | 0 W/m² | - |
| 1787791935 | 14.44° C | 78% | 1021.5 hPa | 0 mm | 0 m/s | 0 W/m² | - |
| 1787791875 | 14.44° C | 78% | 1021.5 hPa | 0 mm | 0.45 m/s, 59° | 0 W/m² | - |
| 1787791815 | 14.44° C | 78% | 1021.4 hPa | 0 mm | 1.34 m/s, 108° | 0 W/m² | - |
| 1787791755 | 14.44° C | 78% | 1021.4 hPa | 0 mm | 0.89 m/s, 80° | 0 W/m² | - |
| 1787791695 | 14.44° C | 78% | 1021.5 hPa | 0 mm | 0.89 m/s, 129° | 0 W/m² | - |
| 1787791634 | 14.44° C | 78% | 1021.5 hPa | 0 mm | 0 m/s | 0 W/m² | - |
| 1787791575 | 14.44° C | 78% | 1021.4 hPa | 0 mm | 0.45 m/s, 207° | 0 W/m² | - |
| 1787791515 | 14.44° C | 78% | 1021.4 hPa | 0 mm | 0.89 m/s, 130° | 0 W/m² | - |
| 1787791455 | 14.44° C | 78% | 1021.6 hPa | 0 mm | 0.45 m/s, 354° | 0 W/m² | - |
| 1787791395 | 14.44° C | 78% | 1021.6 hPa | 0 mm | 1.34 m/s, 10° | 0 W/m² | - |
| 1787791335 | 14.44° C | 78% | 1021.4 hPa | 0 mm | 1.34 m/s, 86° | 0 W/m² | - |
| 1787791275 | 14.44° C | 78% | 1021.6 hPa | 0 mm | 0.89 m/s, 27° | 0 W/m² | - |
| 1787791214 | 14.44° C | 78% | 1021.5 hPa | 0 mm | 0.89 m/s, 357° | 0 W/m² | - |
| 1787791154 | 14.44° C | 78% | 1021.5 hPa | 0 mm | 0.45 m/s, 123° | 0 W/m² | - |
| 1787791095 | 14.44° C | 78% | 1021.4 hPa | 0 mm | 0.89 m/s, 170° | 0 W/m² | - |
| 1787791034 | 14.44° C | 78% | 1021.4 hPa | 0 mm | 1.34 m/s, 41° | 0 W/m² | - |
| 1787790975 | 14.44° C | 78% | 1021.4 hPa | 0 mm | 0.45 m/s, 127° | 0 W/m² | - |
| 1787790914 | 14.44° C | 78% | 1021.2 hPa | 0 mm | 0.89 m/s, 33° | 0 W/m² | - |
| 1787790854 | 14.44° C | 78% | 1021.4 hPa | 0 mm | 0.89 m/s, 78° | 0 W/m² | - |
| 1787790794 | 14.44° C | 78% | 1021.4 hPa | 0 mm | 0 m/s | 0 W/m² | - |
| 1787790735 | 14.44° C | 78% | 1021.4 hPa | 0 mm | 0.45 m/s, 58° | 0 W/m² | - |
* Rain latest hour (hover to see other rain measurements)
** Current wind speed in m/s (hover to see current wind gust speed)